Blackwell, OK

2:17 PM CST on December 15, 2017 (GMT -0600)
Blackwell

Weather History for KBKN - January, 2013

Change the Weather History Date:

Monday, January 7, 2013

  Actual Average (KPNC) Record (KPNC)
Temperature  
Mean Temperature 38 °F -  
Max Temperature 53 °F 36 °F 73 °F (2006)
Min Temperature 23 °F 14 °F -1 °F (1968)
Degree Days  
Heating Degree Days 27    
Moisture  
Dew Point 21 °F    
Average Humidity 56    
Maximum Humidity 80    
Minimum Humidity 30    
Precipitation  
Precipitation 0.00 in - - ()
Sea Level Pressure  
Sea Level Pressure 30.17 in    
Wind  
Wind Speed 10 mph (South)    
Max Wind Speed 21 mph    
Max Gust Speed 28 mph    
Visibility 10 miles    
Events      
Averages and records for this station are not official NWS values.
T = Trace of Precipitation, MM = Missing Value Source: NWS Daily Summary

Daily Weather History Graph

Daily Weather History Graph

Search for Another Location

Airport or City:

Trip Planner

Search our weather history database for the weather conditions in past years. The results will help you decide how hot, cold, wet, or windy it might be!

Date:

Astronomy

Jan. 07, 2013 Rise Set
Actual Time 7:42 AM CST 5:29 PM CST
Civil Twilight 7:13 AM CST 5:58 PM CST
Nautical Twilight 6:41 AM CST 6:30 PM CST
Astronomical Twilight 6:10 AM CST 7:01 PM CST
Moon 3:09 AM CST (1/7) 1:40 PM CST (1/7)
Length of Visible Light 10h 44m
Length of Day
9h 47m
Waning Crescent, 22% of the Moon is Illuminated
Jan 7
Waning Crescent
Jan 11
New
Jan 18
First Quarter
Jan 26
Full
Feb 3
Last Quarter

Hourly Weather History & Observations

Time (CST) Temp. Windchill Dew Point Humidity Pressure Visibility Wind Dir Wind Speed Gust Speed Precip Events Conditions
12:15 AM 30.2 °F 22.6 °F 19.4 °F 64% 30.29 in 10.0 mi SSE 8.1 mph - N/A   Clear
12:35 AM 30.2 °F 21.3 °F 19.4 °F 64% 30.28 in 10.0 mi SE 10.4 mph - N/A   Clear
12:55 AM 32.0 °F 23.6 °F 19.4 °F 60% 30.28 in 10.0 mi SSE 10.4 mph - N/A   Clear
1:15 AM 28.4 °F 19.7 °F 19.4 °F 69% 30.27 in 10.0 mi SE 9.2 mph - N/A   Clear
1:35 AM 28.4 °F 19.7 °F 19.4 °F 69% 30.27 in 10.0 mi SSE 9.2 mph - N/A   Clear
1:55 AM 28.4 °F 20.4 °F 19.4 °F 69% 30.26 in 10.0 mi SSE 8.1 mph - N/A   Clear
2:15 AM 28.4 °F 20.4 °F 19.4 °F 69% 30.26 in 10.0 mi SSE 8.1 mph - N/A   Clear
2:35 AM 28.4 °F 19.7 °F 19.4 °F 69% 30.26 in 10.0 mi SSE 9.2 mph - N/A   Clear
2:55 AM 28.4 °F 21.2 °F 17.6 °F 64% 30.26 in 10.0 mi SSE 6.9 mph - N/A   Clear
3:15 AM 26.6 °F 20.0 °F 17.6 °F 69% 30.26 in 10.0 mi SE 5.8 mph - N/A   Clear
3:35 AM 26.6 °F 20.0 °F 17.6 °F 69% 30.26 in 10.0 mi SE 5.8 mph - N/A   Clear
3:55 AM 28.4 °F 23.3 °F 17.6 °F 64% 30.25 in 10.0 mi SSE 4.6 mph - N/A   Clear
4:15 AM 26.6 °F 22.6 °F 17.6 °F 69% 30.25 in 10.0 mi SW 3.5 mph - N/A   Clear
4:35 AM 26.6 °F 22.6 °F 17.6 °F 69% 30.25 in 10.0 mi SW 3.5 mph - N/A   Clear
4:55 AM 26.6 °F - 17.6 °F 69% 30.24 in 10.0 mi Calm Calm - N/A   Clear
5:15 AM 24.8 °F 20.5 °F 17.6 °F 74% 30.24 in 10.0 mi SSE 3.5 mph - N/A   Clear
5:35 AM 24.8 °F 17.9 °F 17.6 °F 74% 30.23 in 10.0 mi SE 5.8 mph - N/A   Clear
6:35 AM 24.8 °F 17.9 °F 17.6 °F 74% 30.23 in 10.0 mi SE 5.8 mph - N/A   Clear
6:55 AM 23.0 °F 17.0 °F 17.6 °F 80% 30.23 in 10.0 mi SE 4.6 mph - N/A   Clear
7:15 AM 23.0 °F 17.0 °F 17.6 °F 80% 30.23 in 10.0 mi SE 4.6 mph - N/A   Clear
7:35 AM 24.8 °F 20.5 °F 17.6 °F 74% 30.23 in 10.0 mi SE 3.5 mph - N/A   Clear
7:55 AM 23.0 °F 17.0 °F 17.6 °F 80% 30.23 in 10.0 mi ESE 4.6 mph - N/A   Clear
8:15 AM 24.8 °F 19.1 °F 17.6 °F 74% 30.24 in 10.0 mi SE 4.6 mph - N/A   Clear
8:35 AM 26.6 °F 22.6 °F 19.4 °F 74% 30.24 in 10.0 mi SSE 3.5 mph - N/A   Clear
8:55 AM 32.0 °F 23.6 °F 19.4 °F 60% 30.24 in 10.0 mi South 10.4 mph - N/A   Clear
9:15 AM 32.0 °F 24.2 °F 21.2 °F 64% 30.24 in 10.0 mi South 9.2 mph - N/A   Clear
9:35 AM 32.0 °F 23.0 °F 21.2 °F 64% 30.24 in 10.0 mi South 11.5 mph - N/A   Clear
9:55 AM 32.0 °F 24.2 °F 23.0 °F 69% 30.24 in 10.0 mi South 9.2 mph - N/A   Clear
10:15 AM 35.6 °F 28.0 °F 23.0 °F 60% 30.25 in 10.0 mi South 10.4 mph - N/A   Clear
10:35 AM 37.4 °F 29.3 °F 23.0 °F 56% 30.24 in 10.0 mi South 12.7 mph - N/A   Clear
10:55 AM 41.0 °F 32.5 °F 23.0 °F 49% 30.23 in 10.0 mi South 17.3 mph - N/A   Clear
11:15 AM 41.0 °F 32.8 °F 23.0 °F 49% 30.23 in 10.0 mi South 16.1 mph - N/A   Clear
11:35 AM 42.8 °F 35.1 °F 23.0 °F 46% 30.21 in 10.0 mi South 16.1 mph - N/A   Clear
11:55 AM 46.4 °F 39.8 °F 23.0 °F 40% 30.20 in 10.0 mi South 16.1 mph 21.9 mph N/A   Clear
12:15 PM 48.2 °F - 23.0 °F 37% 30.18 in 10.0 mi South 20.7 mph 25.3 mph N/A   Clear
12:35 PM 48.2 °F - 23.0 °F 37% 30.16 in 10.0 mi SSW 20.7 mph 25.3 mph N/A   Clear
1:15 PM 50.0 °F - 23.0 °F 35% 30.13 in 10.0 mi SSW 20.7 mph - N/A   Clear
1:35 PM 50.0 °F - 23.0 °F 35% 30.12 in 10.0 mi South 18.4 mph 23.0 mph N/A   Clear
1:55 PM 51.8 °F - 23.0 °F 33% 30.12 in 10.0 mi SSW 17.3 mph - N/A   Clear
2:15 PM 51.8 °F - 23.0 °F 33% 30.11 in 10.0 mi SSW 19.6 mph 27.6 mph N/A   Clear
2:35 PM 51.8 °F - 23.0 °F 33% 30.10 in 10.0 mi SSW 19.6 mph 25.3 mph N/A   Clear
2:55 PM 51.8 °F - 23.0 °F 33% 30.10 in 10.0 mi SSW 17.3 mph - N/A   Clear
3:15 PM 53.6 °F - 23.0 °F 30% 30.10 in 10.0 mi SSW 16.1 mph - N/A   Clear
3:35 PM 51.8 °F - 23.0 °F 33% 30.10 in 10.0 mi SSW 19.6 mph - N/A   Clear
3:55 PM 50.0 °F - 23.0 °F 35% 30.10 in 10.0 mi SSW 18.4 mph - N/A   Clear
4:15 PM 50.0 °F - 23.0 °F 35% 30.10 in 10.0 mi South 15.0 mph - N/A   Clear
4:35 PM 48.2 °F - 23.0 °F 37% 30.10 in 10.0 mi SSW 13.8 mph - N/A   Clear
4:55 PM 48.2 °F - 24.8 °F 40% 30.10 in 10.0 mi South 13.8 mph - N/A   Clear
5:15 PM 46.4 °F 40.4 °F 24.8 °F 43% 30.09 in 10.0 mi South 13.8 mph 18.4 mph N/A   Clear
5:35 PM 46.4 °F 39.8 °F 23.0 °F 40% 30.09 in 10.0 mi South 16.1 mph - N/A   Clear
5:55 PM 44.6 °F 38.8 °F 24.8 °F 46% 30.08 in 10.0 mi South 11.5 mph - N/A   Clear
6:15 PM 42.8 °F 37.0 °F 24.8 °F 49% 30.08 in 10.0 mi South 10.4 mph - N/A   Clear
6:35 PM 41.0 °F 34.7 °F 23.0 °F 49% 30.09 in 10.0 mi South 10.4 mph - N/A   Clear
6:55 PM 41.0 °F 35.2 °F 23.0 °F 49% 30.08 in 10.0 mi South 9.2 mph - N/A   Clear
7:15 PM 41.0 °F 35.2 °F 23.0 °F 49% 30.08 in 10.0 mi South 9.2 mph - N/A   Clear
7:35 PM 39.2 °F 34.2 °F 23.0 °F 52% 30.08 in 10.0 mi SSE 6.9 mph - N/A   Clear
7:55 PM 37.4 °F 30.3 °F 23.0 °F 56% 30.07 in 10.0 mi SSE 10.4 mph - N/A   Clear
8:15 PM 37.4 °F 30.3 °F 23.0 °F 56% 30.07 in 10.0 mi SSE 10.4 mph - N/A   Clear
8:35 PM 37.4 °F 30.8 °F 23.0 °F 56% 30.07 in 10.0 mi SSE 9.2 mph - N/A   Clear
8:55 PM 35.6 °F 29.2 °F 23.0 °F 60% 30.07 in 10.0 mi SSE 8.1 mph - N/A   Clear
9:15 PM 37.4 °F 31.4 °F 23.0 °F 56% 30.06 in 10.0 mi SSE 8.1 mph - N/A   Clear
9:35 PM 35.6 °F 30.7 °F 23.0 °F 60% 30.06 in 10.0 mi SE 5.8 mph - N/A   Clear
9:55 PM 35.6 °F 28.6 °F 23.0 °F 60% 30.05 in 10.0 mi SSE 9.2 mph - N/A   Clear
10:15 PM 37.4 °F 32.1 °F 23.0 °F 56% 30.06 in 10.0 mi SSE 6.9 mph - N/A   Clear
10:35 PM 35.6 °F 29.2 °F 23.0 °F 60% 30.06 in 10.0 mi SSE 8.1 mph - N/A   Clear
10:55 PM 35.6 °F 29.2 °F 23.0 °F 60% 30.06 in 10.0 mi South 8.1 mph - N/A   Clear
11:15 PM 35.6 °F 29.2 °F 24.8 °F 65% 30.05 in 10.0 mi SSE 8.1 mph - N/A   Clear
11:35 PM 33.8 °F 27.0 °F 24.8 °F 70% 30.05 in 10.0 mi SSE 8.1 mph - N/A   Clear
11:55 PM 35.6 °F 28.6 °F 24.8 °F 65% 30.04 in 10.0 mi SSE 9.2 mph - N/A   Clear